Regional Weather Roundup
Issued by NWS

Home | Current Version | Previous Version | Text Only | Print | Product List | Glossary On
Versions: 1 2 3 4 5 6 7 8 9 10 11 12 13 14 15 16 17 18 19 20 21 22 23 24 25 26 27 28 29 30 31 32 33 34 35 36 37 38 39 40 41 42 43 44 45 46 47 48 49 50
000
ASUS44 KEWX 081103
RWRTX
SOUTH TEXAS REGIONAL WEATHER ROUNDUP
NATIONAL WEATHER SERVICE AUSTIN/SAN ANTONIO TX
500 AM CST THU DEC 08 2016

NOTE: "FAIR" INDICATED FEW OR NO CLOUDS BELOW 12,000 FEET WITH NO
SIGNIFICANT WEATHER AND/OR OBSTRUCTIONS TO VISIBILITY.

* - THESE STATIONS ARE NOT NWS OR FAA STATIONS...AND ARE NOT SUBJECT
    TO NWS AND FAA QUALITY CONTROL.

TXZ171-172-183>190-081200-
TEXAS HILL COUNTRY AND EDWARDS PLATEAU

CITY           SKY/WX    TMP DP  RH WIND       PRES   REMARKS
JUNCTION       CLOUDY    39  33  79 N20G26    30.37R WCI  29
*LLANO         CLOUDY   N/A N/A N/A NE14G22   30.41R
BURNET         CLOUDY    40  33  76 N20G30    30.37R WCI  30
*HORSESHOE BAY CLOUDY    43  38  82 N8G16     30.37R WCI  38
*KERRVILLE     CLOUDY    43  39  86 N16G24    30.31R WCI  35
*FREDERICKSBRG CLOUDY    41  37  83 N15G21    30.33R WCI  34
*ROCKSPRINGS   CLOUDY    39  37  93 NE14G28   30.30R FOG     WCI  31
*BOERNE STAGE  CLOUDY    45  37  76 N16G23    30.28R WCI  37
*CASTROVILLE   CLOUDY    50  39  65 NE15G29   30.27R WCI  45
HONDO          CLOUDY    51  41  68 NE21      30.24S
*UVALDE        CLOUDY    50  43  77 N16       30.25S WCI  44
DEL RIO        CLOUDY    50  42  74 N13       30.29R WCI  45
LAUGHLIN AFB   NOT AVBL
CARRIZO SPRGS  CLOUDY    52  48  87 NE10      30.23R
*EAGLE PASS    CLOUDY    50  46  87 N9        30.26R WCI  46
$$

TXZ173-191>194-202-209-217>225-228-081200-
CENTRAL AND SOUTH CENTRAL TEXAS

CITY           SKY/WX    TMP DP  RH WIND       PRES   REMARKS
GEORGETOWN     CLOUDY    43  36  75 N16G24    30.36R WCI  35
AUSTIN/BERGSTM CLOUDY    47  39  74 N23G35    30.33R WCI  39
AUSTIN/MABRY   CLOUDY    46  38  73 N8G22     30.35R WCI  42
*AUSTIN/EXEC   CLOUDY    43  37  81 N23G31    30.34R WCI  33
*LAGO VISTA    CLOUDY    43  38  83 N14G25    30.32S WCI  36
SAN MARCOS     CLOUDY    46  41  81 NE22G30   30.30S WCI  38
NEW BRAUNFELS  CLOUDY    50  42  74 N17G26    30.26R WCI  44
RANDOLPH AFB   CLOUDY    49  42  77 N15       30.26R WCI  44
PT SAN ANTONIO CLOUDY    50  41  69 N20       30.23R WCI  44
SAN ANTONIO    CLOUDY    49  39  68 N20G29    30.26R WCI  42
STINSON FIELD  CLOUDY    52  41  66 NE12G25   30.25R
*PLEASANTON    CLOUDY    52  43  71 NE21G26   30.24S
*LA GRANGE     CLOUDY    51  45  81 N15G23    30.26R
*GIDDINGS      CLOUDY    46  41  84 N14G21    30.35R WCI  40
*GONZALES      CLOUDY    51  45  80 N14G22    30.26R
$$

TXZ163>164-176>182-195>201-210>213-226-227-235-081200-
SOUTHEAST TEXAS

CITY           SKY/WX    TMP DP  RH WIND       PRES   REMARKS
COLLEGE STN    CLOUDY    46  43  89 N21G28    30.32R WCI  38
*BRYAN         CLOUDY    45  42  92 N22G30    30.33S WCI  36
*CALDWELL      NOT AVBL
*CROCKETT      CLOUDY    45  41  87 N17G24    30.37R WCI  37
*BRENHAM       CLOUDY    50  46  84 N13G18    30.30S WCI  45
HUNTSVILLE     CLOUDY    48  44  86 VRB7G18   30.30R WCI  45
CONROE         LGT RAIN  50  48  93 N12G25    30.28R WCI  46
HOUSTON BUSH   LGT RAIN  54  52  93 N12       30.25R
HOUSTON HOBBY  LGT RAIN  55  52  89 NE18      30.22R
*HOUSTON SW AP DRIZZLE   53  52  96 N14G20    30.22R
PEARLAND       CLOUDY    56  53  90 NE12      30.23R
HOUSTON HOOKS  CLOUDY    53  50  89 N13G21    30.25R
ELLINGTON FLD  LGT RAIN  54  54 100 N17       30.22S
SUGAR LAND     CLOUDY    53  52  96 N18G25    30.22R
*HOUSTON EXEC    N/A     52  50  93 N16       30.26R
*CLEVELAND MUN LGT RAIN  52  51  95 N7        30.27S
*WHARTON       CLOUDY    53  50  90 N12       30.23R
*COLUMBUS      CLOUDY    51  47  87 N14G22    30.26R
*EAGLE LAKE    CLOUDY    54  51  92 N20G28    30.25R
$$

TXZ214>216-236>238-081200-
THE UPPER TEXAS COAST

CITY           SKY/WX    TMP DP  RH WIND       PRES   REMARKS
*ORANGE        CLOUDY   N/A N/A N/A NE12G17   30.24R
PORT ARTHUR    CLOUDY    54  51  90 N15G22    30.21R
GALVESTON      CLOUDY    58  55  90 N20G31    30.19R
ANGLETON       CLOUDY    57  54  89 N15G26    30.19R
*BAY CITY      CLOUDY    56  54  91 N14G21    30.19R
PALACIOS       CLOUDY    53  51  93 N22G35    30.17S
$$

TXZ229>234-239>247-081200-
TEXAS COASTAL BEND AND RIO GRANDE PLAINS

CITY           SKY/WX    TMP DP  RH WIND       PRES   REMARKS
VICTORIA       CLOUDY    54  49  83 N18G30    30.21S
*BEEVILLE      CLOUDY    55  51  87 NE20G28   30.18R
ROCKPORT         N/A    N/A N/A N/A MISG      30.16R
*PORT ARANSAS  CLOUDY    56  53  88 N28G36    30.14R
*PORT LAVACA   CLOUDY    55  52  88 N20G30    30.18R
*INGLESIDE     CLOUDY    58  53  84 NE22G35   30.15R
CORPUS CHRISTI LGT RAIN  56  52  86 NE26G36   30.14R
CORPUS NAS     CLOUDY    56  54  93 N26G35    30.13R
*ROBSTOWN      CLOUDY    57  52  85 N15G28    30.15S
ALICE          CLOUDY    55  51  86 N15G23    30.16R
KINGSVILLE NAS NOT AVBL
COTULLA        CLOUDY    56  46  69 NE12G22   30.23R
*FAITH RANCH   CLOUDY    54  54 100 N14G20    30.23R FOG
LAREDO         LGT RAIN  53  51  93 N14       30.20R
$$

TXZ248>255-081200-
DEEP SOUTH TEXAS

CITY           SKY/WX    TMP DP  RH WIND       PRES   REMARKS
BROWNSVILLE    CLOUDY    65  63  93 N12G22    30.05R
PORT ISABEL    LGT RAIN  64  64 100 N23G33    30.04S FOG
*SOUTH PADRE     N/A     68  66  94 N25G32    30.03S VSB 1
HARLINGEN      CLOUDY    61  61 100 N18G29    30.06R FOG
*HEBBRONVILLE  RAIN      53  52  97 NE13      30.16R
MCALLEN        CLOUDY    62  58  86 N14       30.09R FOG
*WESLACO       CLOUDY    60  58  96 NE13G18   30.08R FOG
FALFURRIAS     CLOUDY    56  54  91 N12       30.14R
EDINBURG       CLOUDY    61  58  90 N14G21    30.10S FOG
*ZAPATA        CLOUDY    56  56 100 N10       30.14S FOG
$$

TXZ213>215-236>238-242>244-246-247-251-254-255-081200-
CMAN STATIONS

STATION/POSITION TIME  TEMP    WIND        PRES    WAVE
                       AIR SEA DIR/SP/G            HT/PER
                 (UTC) (F)     (DEG/KT/KT) (MB)    (FT/S)
SABINE PASS      1030   54 61   20/ 14/ 20 1023.9
SEA RIM ST PARK  1000   54      30/ 19/ 23 1022.5
NORTH JETTY/GLS  1030   57 63   20/ 22/ 25   N/A
EAGLE POINT      1030   56 60   30/ 16/ 21 1023.0
MORGANS POINT    1030   55 61   20/ 12/ 16 1023.5
PORT O`CONNOR    1030   56     360/ 24/ 29 1021.1
PORT ARANSAS     1000   57 64  360/ 26/ 31 1019.4
MALAQUITE BEACH  1030   58 64  360/ 27/ 32 1020.2
BAFFIN BAY       1030   59 63   20/ 26/ 33 1019.9
PORT ISABEL      1030   66 71  360/ 20/ 26 1016.5
$$

GMZ080-GMZ150>470-081200-
OFFSHORE BUOY REPORTS

STATION/POSITION TIME  TEMP    WIND        PRES    WAVE
                       AIR SEA DIR/SP/G            HT/PER
                 (UTC) (F)     (DEG/KT/KT) (MB)    (FT/S)
20 E GALVESTON   0950   59 66   10/ 25/ 31 1020.3    5/ 5
90 E PT ARANSAS  0950   68 77  360/ 25/ 31 1017.5    5/ 5
35 NE PT MANSFLD 1050   68 75   20/ 27/ 31 1016.8    8/ 7
200 E PT ISABEL  0950   75 77   10/ 10/ 17 1016.5    4/ 6
$$




USA.gov is the U.S. government's official web portal to all federal, state and local government web resources and services.